Saginaw Browne, MI

3:26 PM EDT on June 22, 2017 (GMT -0400)
Saginaw County-Browne

Weather History for KHYX - January, 2013

Change the Weather History Date:

Tuesday, January 22, 2013

  Actual Average (KMBS) Record (KMBS)
Temperature  
Mean Temperature 6 °F -  
Max Temperature 10 °F 24 °F 43 °F (1997)
Min Temperature 1 °F 11 °F -6 °F (2000)
Degree Days  
Heating Degree Days 60    
Moisture  
Dew Point -5 °F    
Average Humidity 63    
Maximum Humidity 72    
Minimum Humidity 52    
Precipitation  
Precipitation 0.00 in - - ()
Sea Level Pressure  
Sea Level Pressure 30.19 in    
Wind  
Wind Speed 14 mph (West)    
Max Wind Speed 20 mph    
Max Gust Speed 26 mph    
Visibility 10 miles    
Events Snow    
Averages and records for this station are not official NWS values.
T = Trace of Precipitation, MM = Missing Value Source: NWS Daily Summary

Daily Weather History Graph

Daily Weather History Graph

Search for Another Location

Airport or City:

Trip Planner

Search our weather history database for the weather conditions in past years. The results will help you decide how hot, cold, wet, or windy it might be!

Date:

Astronomy

Jan. 22, 2013 Rise Set
Actual Time 8:00 AM EST 5:34 PM EST
Civil Twilight 7:29 AM EST 6:05 PM EST
Nautical Twilight 6:54 AM EST 6:40 PM EST
Astronomical Twilight 6:20 AM EST 7:14 PM EST
Moon 1:55 PM EST 4:22 AM EST
Length of Visible Light 10h 35m
Length of Day
9h 33m
Waxing Gibbous, 82% of the Moon is Illuminated
Jan 22
Waxing Gibbous
Jan 26
Full
Feb 3
Last Quarter
Feb 10
New
Feb 17
First Quarter

Hourly Weather History & Observations

Time (EST) Temp. Windchill Dew Point Humidity Pressure Visibility Wind Dir Wind Speed Gust Speed Precip Events Conditions
12:13 AM 3.2 °F -15.3 °F -4.0 °F 72% 30.08 in 10.0 mi West 15.0 mph 19.6 mph N/A   Clear
12:33 AM 3.2 °F -15.9 °F -5.8 °F 66% 30.07 in 10.0 mi West 16.1 mph 21.9 mph N/A   Clear
12:53 AM 3.2 °F -16.5 °F -5.8 °F 66% 30.08 in 10.0 mi West 17.3 mph 24.2 mph N/A   Clear
1:13 AM 3.2 °F -15.3 °F -5.8 °F 66% 30.08 in 10.0 mi West 15.0 mph - N/A   Clear
1:33 AM 3.2 °F -16.5 °F -5.8 °F 66% 30.08 in 10.0 mi West 17.3 mph 21.9 mph N/A   Clear
1:53 AM 3.2 °F -17.6 °F -5.8 °F 66% 30.09 in 10.0 mi West 19.6 mph - N/A   Clear
2:13 AM 1.4 °F -15.3 °F -7.6 °F 66% 30.10 in 10.0 mi West 11.5 mph - N/A   Clear
2:33 AM 1.4 °F -16.9 °F -7.6 °F 66% 30.11 in 10.0 mi West 13.8 mph 19.6 mph N/A   Clear
2:53 AM 1.4 °F -16.9 °F -7.6 °F 66% 30.11 in 10.0 mi West 13.8 mph - N/A   Clear
3:13 AM 1.4 °F -17.6 °F -7.6 °F 66% 30.12 in 10.0 mi West 15.0 mph 19.6 mph N/A   Clear
3:34 AM 1.4 °F -19.4 °F -7.6 °F 66% 30.12 in 10.0 mi West 18.4 mph - N/A   Clear
3:54 AM 1.4 °F -17.6 °F -7.6 °F 66% 30.12 in 10.0 mi West 15.0 mph 19.6 mph N/A   Clear
4:14 AM 1.4 °F -18.2 °F -9.4 °F 61% 30.13 in 10.0 mi West 16.1 mph 19.6 mph N/A   Clear
4:34 AM 1.4 °F -17.6 °F -9.4 °F 61% 30.13 in 10.0 mi West 15.0 mph 19.6 mph N/A   Clear
4:54 AM 1.4 °F -16.9 °F -9.4 °F 61% 30.14 in 10.0 mi West 13.8 mph 18.4 mph N/A   Clear
5:14 AM 1.4 °F -17.6 °F -9.4 °F 61% 30.14 in 10.0 mi West 15.0 mph - N/A   Clear
5:34 AM 1.4 °F -16.9 °F -7.6 °F 66% 30.14 in 10.0 mi West 13.8 mph 19.6 mph N/A   Clear
5:54 AM 1.4 °F -17.6 °F -7.6 °F 66% 30.14 in 10.0 mi West 15.0 mph 18.4 mph N/A   Clear
6:14 AM 1.4 °F -17.6 °F -7.6 °F 66% 30.16 in 10.0 mi West 15.0 mph - N/A   Clear
6:34 AM 1.4 °F -18.2 °F -7.6 °F 66% 30.16 in 10.0 mi West 16.1 mph 20.7 mph N/A   Clear
6:54 AM 1.4 °F -16.9 °F -7.6 °F 66% 30.17 in 10.0 mi West 13.8 mph 20.7 mph N/A   Clear
7:15 AM 1.4 °F -17.6 °F -7.6 °F 66% 30.17 in 10.0 mi West 15.0 mph - N/A   Clear
7:35 AM 1.4 °F -16.1 °F -7.6 °F 66% 30.17 in 10.0 mi West 12.7 mph - N/A   Clear
7:55 AM 1.4 °F -15.3 °F -7.6 °F 66% 30.18 in 10.0 mi West 11.5 mph - N/A   Clear
8:15 AM 1.4 °F -16.1 °F -7.6 °F 66% 30.18 in 10.0 mi West 12.7 mph 18.4 mph N/A   Clear
8:35 AM 1.4 °F -16.9 °F -7.6 °F 66% 30.19 in 10.0 mi West 13.8 mph - N/A   Clear
8:55 AM 3.2 °F -13.1 °F -5.8 °F 66% 30.20 in 10.0 mi West 11.5 mph - N/A   Clear
9:15 AM 3.2 °F -15.9 °F -5.8 °F 66% 30.21 in 10.0 mi West 16.1 mph - N/A   Clear
9:35 AM 3.2 °F -15.3 °F -5.8 °F 66% 30.21 in 10.0 mi West 15.0 mph 19.6 mph N/A   Clear
9:51 AM 5.0 °F -13.0 °F -5.8 °F 61% 30.22 in 10.0 mi West 15.0 mph 20.7 mph N/A   Clear
10:11 AM 5.0 °F -13.6 °F -5.8 °F 61% 30.22 in 10.0 mi West 16.1 mph 19.6 mph N/A   Clear
10:31 AM 5.0 °F -13.6 °F -5.8 °F 61% 30.22 in 10.0 mi West 16.1 mph 20.7 mph N/A   Clear
10:51 AM 6.8 °F -10.7 °F -5.8 °F 56% 30.23 in 10.0 mi West 15.0 mph 21.9 mph N/A   Clear
11:11 AM 8.6 °F -10.5 °F -5.8 °F 52% 30.23 in 10.0 mi West 19.6 mph - N/A   Scattered Clouds
11:31 AM 6.8 °F -12.9 °F -5.8 °F 56% 30.23 in 10.0 mi West 19.6 mph 26.5 mph N/A   Scattered Clouds
11:51 AM 6.8 °F -11.3 °F -5.8 °F 56% 30.23 in 10.0 mi West 16.1 mph 23.0 mph N/A   Mostly Cloudy
12:11 PM 6.8 °F -11.8 °F -5.8 °F 56% 30.22 in 10.0 mi WNW 17.3 mph - N/A   Overcast
12:31 PM 6.8 °F -10.7 °F -5.8 °F 56% 30.22 in 10.0 mi West 15.0 mph - N/A   Overcast
12:51 PM 8.6 °F -7.0 °F -4.0 °F 57% 30.21 in 10.0 mi West 12.7 mph 18.4 mph N/A   Overcast
1:12 PM 8.6 °F -7.7 °F -5.8 °F 52% 30.21 in 10.0 mi West 13.8 mph 17.3 mph N/A   Overcast
1:32 PM 8.6 °F -8.3 °F -4.0 °F 57% 30.20 in 10.0 mi West 15.0 mph 21.9 mph N/A   Overcast
1:52 PM 8.6 °F -10.0 °F -4.0 °F 57% 30.19 in 10.0 mi WNW 18.4 mph - N/A   Overcast
2:12 PM 8.6 °F -10.0 °F -5.8 °F 52% 30.20 in 10.0 mi West 18.4 mph 23.0 mph N/A   Overcast
2:32 PM 8.6 °F -7.7 °F -4.0 °F 57% 30.21 in 10.0 mi West 13.8 mph - N/A   Overcast
2:52 PM 10.4 °F -4.1 °F -0.4 °F 62% 30.21 in 5.0 mi WNW 11.5 mph 20.7 mph N/A   Haze
3:12 PM 8.6 °F -6.3 °F -2.2 °F 62% 30.21 in 10.0 mi NW 11.5 mph - N/A   Overcast
3:32 PM 8.6 °F -5.5 °F -0.4 °F 67% 30.21 in 10.0 mi West 10.4 mph - N/A   Overcast
3:52 PM 8.6 °F -4.7 °F -4.0 °F 57% 30.21 in 10.0 mi West 9.2 mph - N/A   Overcast
4:13 PM 8.6 °F -7.7 °F -0.4 °F 67% 30.21 in 3.0 mi West 13.8 mph 19.6 mph N/A Snow Light Snow
4:33 PM 8.6 °F -5.5 °F -0.4 °F 67% 30.21 in 4.0 mi WNW 10.4 mph - N/A Snow Light Snow
4:53 PM 8.6 °F -4.7 °F -0.4 °F 67% 30.21 in 7.0 mi West 9.2 mph - N/A   Overcast
5:13 PM 8.6 °F -7.7 °F -0.4 °F 67% 30.22 in 10.0 mi West 13.8 mph - N/A   Overcast
5:33 PM 8.6 °F -2.6 °F -0.4 °F 67% 30.22 in 10.0 mi West 6.9 mph - N/A   Mostly Cloudy
5:53 PM 8.6 °F -6.3 °F -0.4 °F 67% 30.22 in 10.0 mi West 11.5 mph - N/A   Scattered Clouds
6:13 PM 6.8 °F -5.9 °F -0.4 °F 72% 30.23 in 10.0 mi WNW 8.1 mph - N/A   Scattered Clouds
6:33 PM 8.6 °F -3.7 °F -0.4 °F 67% 30.24 in 10.0 mi WNW 8.1 mph - N/A   Mostly Cloudy
6:53 PM 8.6 °F -4.7 °F -2.2 °F 62% 30.24 in 10.0 mi NW 9.2 mph - N/A   Overcast
7:13 PM 8.6 °F -5.5 °F -0.4 °F 67% 30.24 in 10.0 mi NW 10.4 mph - N/A   Overcast
7:34 PM 6.8 °F -7.8 °F -2.2 °F 67% 30.25 in 10.0 mi WNW 10.4 mph - N/A   Overcast
7:54 PM 6.8 °F -8.6 °F -4.0 °F 61% 30.24 in 10.0 mi WNW 11.5 mph - N/A   Overcast
8:14 PM 6.8 °F -7.8 °F -4.0 °F 61% 30.24 in 10.0 mi WNW 10.4 mph - N/A   Mostly Cloudy
8:34 PM 6.8 °F -7.8 °F -4.0 °F 61% 30.24 in 10.0 mi West 10.4 mph - N/A   Scattered Clouds
8:54 PM 5.0 °F -8.1 °F -5.8 °F 61% 30.25 in 10.0 mi WNW 8.1 mph - N/A   Scattered Clouds
9:14 PM 5.0 °F -6.9 °F -5.8 °F 61% 30.25 in 10.0 mi West 6.9 mph - N/A   Scattered Clouds
9:34 PM 5.0 °F -5.6 °F -4.0 °F 66% 30.25 in 10.0 mi West 5.8 mph - N/A   Clear
9:54 PM 5.0 °F -4.1 °F -4.0 °F 66% 30.24 in 10.0 mi West 4.6 mph - N/A   Clear
10:14 PM 5.0 °F -6.9 °F -4.0 °F 66% 30.24 in 10.0 mi West 6.9 mph - N/A   Clear
10:34 PM 5.0 °F -6.9 °F -4.0 °F 66% 30.24 in 10.0 mi West 6.9 mph - N/A   Clear
10:55 PM 5.0 °F -6.9 °F -4.0 °F 66% 30.24 in 10.0 mi West 6.9 mph - N/A   Clear
11:15 PM 5.0 °F -6.9 °F -4.0 °F 66% 30.24 in 10.0 mi West 6.9 mph - N/A   Clear
11:35 PM 5.0 °F -8.1 °F -4.0 °F 66% 30.25 in 10.0 mi West 8.1 mph - N/A   Clear
11:55 PM 5.0 °F -8.1 °F -4.0 °F 66% 30.25 in 10.0 mi West 8.1 mph - N/A   Clear